Location: Unspecified
(47.1121°N, 116.3927°W)
Time: 20:26:19
(UTC-07:00)

Cosmos 2058 - Visible Passes

Search period start: 23 March 2019 00:00
Search period end: 02 April 2019 00:00
Orbit: 564 x 583 km, 82.5° (Epoch: 23 March)

Date Brightness Start Highest point End Pass type
(mag) Time Alt. Az. Time Alt. Az. Time Alt. Az.
23 Mar 5.8 22:34:44 10° N 22:35:05 12° N 22:35:05 12° N visible
24 Mar 5.7 22:37:40 10° N 22:38:19 14° N 22:38:19 14° N visible
25 Mar 5.6 22:40:38 10° N 22:41:32 16° N 22:41:32 16° N visible
26 Mar 5.5 22:43:39 10° N 22:44:47 18° N 22:44:47 18° N visible
27 Mar 5.4 22:46:42 10° NNW 22:48:03 20° NNW 22:48:03 20° NNW visible
28 Mar 5.3 21:14:18 10° NNE 21:15:06 12° NE 21:15:06 12° NE visible
28 Mar 5.3 22:49:48 10° NNW 22:51:18 21° NNW 22:51:18 21° NNW visible
29 Mar 5.0 21:16:52 10° NNE 21:18:23 15° NE 21:18:23 15° NE visible
29 Mar 5.3 22:52:56 10° NNW 22:54:36 22° NNW 22:54:36 22° NNW visible
30 Mar 4.7 21:19:36 10° NNE 21:21:41 19° NE 21:21:41 19° NE visible
30 Mar 5.3 22:56:07 10° NNW 22:57:55 22° NW 22:57:55 22° NW visible
31 Mar 4.4 21:22:25 10° NNE 21:25:01 25° NE 21:25:01 25° NE visible
31 Mar 5.3 22:59:20 10° NNW 23:01:14 21° NW 23:01:14 21° NW visible
01 Apr 4.0 21:25:18 10° N 21:28:21 32° NE 21:28:21 32° NE visible
01 Apr 5.4 23:02:40 10° NW 23:04:35 19° WNW 23:04:35 19° WNW visible
